Location: Banksville Park
(38.5557°N, 75.1182°W)
Time: 07:13:59
(UTC+00:00)

CZ-2C R/B - Pass Details

Date: 19 September 2020
Orbit: 785 x 870 km, 98.2° (Epoch: 19 October)

Event Time Altitude Azimuth Distance (km) Brightness Sun altitude
Rises 00:23:47 0° 16° (NNE) 3,419 5.9 -16.4°
Reaches altitude 10° 00:26:12 10° 20° (NNE) 2,490 5.1 -16.9°
Maximum altitude 00:31:40 60° 101° (E) 982 2.7 -17.9°
Drops below altitude 10° 00:37:11 10° 181° (S) 2,505 5.0 -18.9°
Sets 00:39:36 0° 184° (S) 3,440 5.7 -19.4°
